Regional Weather Roundup
Issued by NWS

Home | Current Version | Previous Version | Graphics & Text | Print | Product List | Glossary On
Versions: 1 2 3 4 5 6 7 8 9 10 11 12 13 14 15 16 17 18 19 20 21 22 23 24 25 26 27 28 29 30 31 32 33 34 35 36 37 38 39 40 41 42 43 44 45 46 47 48 49 50
000
ASUS45 KABQ 291201
RWRNM
NEW MEXICO REGIONAL WEATHER ROUNDUP
NATIONAL WEATHER SERVICE ALBUQUERQUE NM
600 AM MDT SUN MAY 29 2016

NOTE: "FAIR" MEANS FEW OR NO CLOUDS BELOW 12,000 FEET AGL WITH NO
       SIGNIFICANT WEATHER OR OBSTRUCTIONS TO VISION.

      THIS PRODUCT IS RELEASED AS TWO VERSIONS.  ONE VERSION NEAR
      THE TOP OF THE HOUR CONTAINING PRELIMINARY DATA FROM ALBUQUERQUE
      AND OTHER STATIONS.  A FINAL VERSION WITH ADDITIONAL DATA IS
      ISSUED ABOUT 10 MINUTES AFTER THE HOUR.

NMZ501-503-504-510>518-291300-
NORTHWEST PLATEAU/NORTHCENTRAL MOUNTAINS

CITY           SKY/WX    TMP DP  RH WIND       PRES   REMARKS
FARMINGTON     FAIR      50  30  46 E7        30.12R
6HR MIN TEMP:  50; 6HR MAX TEMP:  59;

SANTA FE       FAIR      49  22  34 N12       30.20R
6HR MIN TEMP:  47; 6HR MAX TEMP:  60;

TAOS           FAIR      39  25  56 N8        30.26R WCI  34
ANGEL FIRE     FAIR      29  24  82 SE3       30.36R

$$
NMZ402-403-502-505>509-291300-
WESTCENTRAL MOUNTAINS/SOUTHWEST MOUNTAINS

CITY           SKY/WX    TMP DP  RH WIND       PRES   REMARKS
GALLUP         FAIR      38  27  64 CALM      30.19R
6HR MIN TEMP:  36; 6HR MAX TEMP:  60;

GRANTS         FAIR      34  21  60 CALM      30.21R
SILVER CITY      N/A     48   9  20 N12       30.16R

$$
NMZ407-409-411-412-291300-
SOUTHERN DESERTS

CITY           SKY/WX    TMP DP  RH WIND       PRES   REMARKS
LORDSBURG      FAIR      50   3  14 SE5       30.10R
DEMING         FAIR      52  13  21 W3        30.10R
6HR MIN TEMP:  51; 6HR MAX TEMP:  66;

HOLLOMAN AFB   FAIR      62  15  15 SE6       30.07R
ALAMOGORDO     FAIR      55  16  21 E5        30.08R
T OR C         FAIR      60  11  14 W10       30.10R
6HR MIN TEMP:  56; 6HR MAX TEMP:  64;


$$
NMZ519>523-291300-
CENTRAL VALLEYS/CENTRAL HIGHLANDS

CITY           SKY/WX    TMP DP  RH WIND       PRES   REMARKS
ALBUQUERQUE    FAIR      56  25  30 N3        30.13R
6HR MIN TEMP:  56; 6HR MAX TEMP:  69;

DOUBLE EAGLE   PTCLDY    43  19  39 N5        30.16S
CLINES CORNERS FAIR      49  18  29 S8        30.22R
6HR MIN TEMP:  47; 6HR MAX TEMP:  52;

BELEN          FAIR      47  14  26 NE5       30.12R
6HR MIN TEMP:  46; 6HR MAX TEMP:  65;

SOCORRO        NOT AVBL

$$
NMZ524>526-539-540-291300-
SOUTHCENTRAL MOUNTAINS

CITY           SKY/WX    TMP DP  RH WIND       PRES   REMARKS
RUIDOSO        NOT AVBL

$$
NMZ527>531-291300-
NORTHEAST HIGHLANDS/NORTHEAST PLAINS

CITY           SKY/WX    TMP DP  RH WIND       PRES   REMARKS
LAS VEGAS      FAIR      39  24  55 N8        30.26R WCI  33
6HR MIN TEMP:  39; 6HR MAX TEMP:  56;

RATON          FAIR      44  34  67 CALM      30.24R
6HR MIN TEMP:  42; 6HR MAX TEMP:  55;

CLAYTON        FAIR      52  45  77 S9        30.19R
6HR MIN TEMP:  52; 6HR MAX TEMP:  61; 6HR PCP: TRACE;


$$
NMZ532>537-291300-
EASTCENTRAL PLAINS

CITY           SKY/WX    TMP DP  RH WIND       PRES   REMARKS
TUCUMCARI      MOCLDY    59  50  72 CALM      30.14R
6HR MIN TEMP:  55; 6HR MAX TEMP:  67;

CANNON AFB     FAIR      57  54  91 SE3       30.16R
6HR MIN TEMP:  56; 6HR MAX TEMP:  62;

CLOVIS AIRPORT MOCLDY    59  50  72 S9        30.16R

$$
NMZ028-029-538-291300-
SOUTHEAST PLAINS

CITY           SKY/WX    TMP DP  RH WIND       PRES   REMARKS
ROSWELL        CLOUDY    66  52  60 SE5       30.08R
6HR MIN TEMP:  61; 6HR MAX TEMP:  71;

ARTESIA        CLOUDY    64  41  42 NW5       30.09R
CARLSBAD       CLOUDY    71  63  75 SE8       30.05R
6HR MIN TEMP:  66; 6HR MAX TEMP:  72;

HOBBS          MOCLDY    63  63 100 E15G23    30.10R


$$




USA.gov is the U.S. government's official web portal to all federal, state and local government web resources and services.